Weather History for Harare Kutsaga, Zimbabwe

Change the Weather History Date:

Wednesday, November 23, 2011

  Actual Average Record
Temperature  
Mean Temperature 70 °F -  
Max Temperature 77 °F 79 °F 87 °F (2007)
Min Temperature 63 °F 60 °F 59 °F (2012)
Cooling Degree Days 5    
Growing Degree Days 20 (Base 50)    
Moisture  
Dew Point 61 °F    
Average Humidity 76    
Maximum Humidity 94    
Minimum Humidity 43    
Precipitation  
Precipitation 0.00 in 0.20 in - ()
Sea Level Pressure  
Sea Level Pressure 30.11 in    
Wind  
Wind Speed 5 mph ()    
Max Wind Speed 12 mph    
Max Gust Speed -    
Visibility 6.4 miles    
Events Rain    
Averages and records for this station are not official NWS values.
T = Trace of Precipitation, MM = Missing Value Source: Averaged Metar Reports

Daily Weather History Graph

Daily Weather History Graph

Search for Another Location

Airport:

Trip Planner

Search our weather history database for the weather conditions in past years. The results will help you decide how hot, cold, wet, or windy it might be!

Date:

Astronomy

Nov. 23, 2011 Rise Set
Actual Time 5:10 AM CAT 6:13 PM CAT
Civil Twilight 4:46 AM CAT 6:36 PM CAT
Nautical Twilight 4:19 AM CAT 7:04 PM CAT
Astronomical Twilight 3:50 AM CAT 7:33 PM CAT
Moon 3:14 AM CAT (11/23) 4:25 PM CAT (11/23)
Length of Visible Light 13h 49m
Length of Day
13h 02m
Waning Crescent, 5% of the Moon is Illuminated
Nov 23
Waning Crescent
Nov 25
New
Dec 2
First Quarter
Dec 10
Full
Dec 18
Last Quarter

Hourly Weather History & Observations

Time (CAT) Temp. Dew Point Humidity Pressure Visibility Wind Dir Wind Speed Gust Speed Precip Events Conditions
1:00 AM 66.2 °F 62.6 °F 88% 30.06 in - East 3.5 mph - N/A   Clear
2:00 AM 65 °F 62 °F 86%  in 16 mi East 6.9 mph - -   Overcast
3:00 AM 64.4 °F 60.8 °F 88% 30.06 in - SW 2.3 mph - N/A   Clear
4:00 AM 64.4 °F 62.6 °F 94% 30.06 in 6.2 mi East 2.3 mph - N/A Rain Light Rain
5:00 AM 64.4 °F 62.6 °F 94% 30.09 in 6.2 mi West 5.8 mph - N/A   Overcast
6:00 AM 64.4 °F 62.6 °F 94% 30.12 in 2.5 mi WNW 2.3 mph - N/A   Haze
7:00 AM 64.4 °F 62.6 °F 94% 30.15 in 2.5 mi WSW 5.8 mph - N/A   Haze
8:00 AM 66 °F 62 °F 83%  in 5 mi West 6.9 mph - -   Haze
8:00 AM 66.2 °F 62.6 °F 88% 30.15 in 5.0 mi West 6.9 mph - N/A   Overcast
9:00 AM 66.2 °F 62.6 °F 88% 30.18 in 5.6 mi West 5.8 mph - N/A Rain Light Rain
10:00 AM 66.2 °F 64.4 °F 94% 30.15 in 5.6 mi WSW 5.8 mph - N/A   Mostly Cloudy
11:00 AM 69.8 °F 62.6 °F 78% 30.15 in 5.6 mi West 5.8 mph - N/A   Mostly Cloudy
12:00 PM 75.2 °F 64.4 °F 69% 30.12 in 5.6 mi ENE 6.9 mph - N/A   Mostly Cloudy
1:00 PM 75.2 °F 62.6 °F 65% 30.09 in 6.2 mi NE 9.2 mph - N/A   Mostly Cloudy
2:00 PM 75 °F 60 °F 50%  in 9 mi NNE 9.2 mph - - Rain Light Rain Showers
2:00 PM 75.2 °F 60.8 °F 61% 30.06 in 6.2 mi NNE 9.2 mph - N/A Rain Light Rain Showers
4:00 PM 77.0 °F 62.6 °F 61% 30.01 in 6.2 mi NNE 10.4 mph - N/A   Mostly Cloudy
5:00 PM 75.2 °F 60.8 °F 61% 30.01 in 6.2 mi ENE 11.5 mph - N/A   Mostly Cloudy
6:00 PM 73.4 °F 60.8 °F 65% 30.04 in 6.2 mi NNE 6.9 mph - N/A   Scattered Clouds
7:00 PM 71.6 °F 60.8 °F 69% 30.06 in 6.2 mi NE 5.8 mph - N/A   Scattered Clouds
8:00 PM 69 °F 59 °F 63%  in 9 mi ENE 5.8 mph - -   Haze
8:00 PM 69.8 °F 59.0 °F 68% 30.09 in - ENE 5.8 mph - N/A   Clear
9:00 PM 69.8 °F 46.4 °F 43% 30.12 in - NNE 5.8 mph - N/A   Clear
10:00 PM 69.8 °F 60.8 °F 73% 30.12 in - NE 5.8 mph - N/A   Clear
11:00 PM 69.8 °F 62.6 °F 78% 30.39 in - NE 5.8 mph - N/A   Clear